Wind_Speed
35 30 28 30 25 29 28 21 19 18 16 14 14 17 18 16 16 14 15 14 14 12
37 34 32 32 30 25 24 24 20 19 18 20 18 16 16 17 15 13 12 12 11 11
37 36 35 34 33 27 24 24 24 21 24 25 21 17 18 17 15 14 15 14 14 14
33 37 38 37 38 33 29 29 28 28 24 27 25 20 19 17 17 16 19 16 16 14
30 35 37 40 40 39 35 31 29 29 23 26 27 22 22 20 19 19 17 18 20 16
32 32 34 34 38 41 36 35 30 27 26 26 27 24 22 21 22 19 19 18 17 18
34 32 28 30 32 35 41 36 35 32 30 28 26 26 25 23 24 23 22 22 22 18
32 30 28 31 28 25 31 36 37 37 33 30 31 28 28 25 24 23 19 18 18 19
34 35 31 31 29 30 27 25 31 34 34 33 29 29 29 26 25 24 22 22 20 20
34 35 33 33 32 31 26 26 30 33 33 33 32 31 29 27 26 26 25 24 20 21
23 27 29 26 27 35 35 31 36 34 35 32 31 31 31 28 27 27 28 23 23 24
8 12 14 20 24 29 29 31 36 38 29 27 31 32 31 30 29 29 31 30 27 26
2 5 8 14 20 11 19 15 17 23 30 30 33 33 31 29 28 29 28 31 33 32
4 4 4 5 17 18 11 9 9 10 12 20 24 22 22 25 25 26 26 31 33 32
Wind_Direction
218 216 217 219 224 226 226 232 237 235 223 216 220 224 228 234 236 237 237 238 249 260
220 219 221 220 226 224 225 229 235 231 229 225 226 223 225 231 231 221 212 211 223 225
223 226 224 222 225 223 218 228 233 235 238 233 227 232 228 226 221 222 224 225 225 229
226 228 228 226 225 228 225 227 235 243 246 225 224 220 221 225 231 243 239 240 241 240
228 229 228 227 224 227 226 224 234 239 240 226 225 225 227 229 240 244 251 246 251 244
226 231 230 231 228 225 228 228 225 226 227 230 224 229 228 242 237 243 253 250 253 241
228 230 231 231 230 230 228 232 229 225 227 228 230 226 246 245 243 250 262 256 250 241
240 236 236 239 230 231 229 235 237 235 236 235 238 241 239 248 252 252 250 248 248 245
234 239 231 231 234 233 231 238 230 237 244 243 244 250 250 248 252 249 247 243 245 250
230 233 230 242 233 228 239 232 238 240 238 245 246 248 245 247 245 244 240 244 250 258
231 239 243 235 237 229 237 247 243 254 240 240 246 242 242 245 243 242 242 251 258 257
212 235 243 240 233 227 229 239 244 242 249 242 245 246 245 243 242 244 244 243 248 252
67 243 236 233 190 219 222 287 267 237 255 238 245 245 242 243 244 244 247 247 247 249
78 91 65 215 230 236 232 251 286 199 204 247 240 246 253 240 241 251 255 247 244 244
Height
1555 1558 1562 1565 1568 1570 1572 1573 1576 1577 1579 1581 1581 1581 1581 1581 1581 1581 1581 1582 1584 1586
1549 1553 1556 1560 1563 1566 1568 1570 1573 1575 1576 1578 1579 1579 1579 1579 1578 1578 1578 1580 1581 1583
1544 1548 1553 1556 1559 1562 1564 1567 1570 1571 1572 1575 1576 1577 1577 1578 1577 1576 1577 1578 1578 1580
1539 1543 1548 1552 1554 1557 1560 1563 1566 1567 1569 1570 1572 1572 1573 1574 1575 1575 1575 1575 1576 1575
1534 1538 1541 1544 1547 1551 1553 1555 1559 1562 1565 1566 1567 1568 1569 1571 1572 1572 1572 1572 1572 1571
1529 1531 1534 1538 1541 1544 1547 1549 1552 1555 1558 1562 1565 1565 1567 1567 1568 1568 1569 1570 1569 1569
1521 1523 1526 1531 1535 1539 1541 1544 1547 1549 1553 1555 1558 1560 1562 1563 1563 1563 1563 1564 1565 1565
1518 1517 1519 1526 1528 1532 1535 1539 1542 1544 1546 1549 1551 1553 1555 1556 1557 1557 1558 1559 1560 1560
1512 1513 1514 1517 1519 1525 1527 1530 1534 1538 1541 1543 1544 1545 1547 1549 1551 1552 1553 1554 1555 1556
1505 1506 1510 1513 1514 1517 1516 1522 1528 1531 1532 1535 1536 1539 1540 1542 1544 1546 1547 1549 1550 1551
1499 1502 1503 1504 1504 1502 1513 1514 1518 1521 1523 1526 1529 1531 1533 1534 1537 1539 1541 1542 1544 1544
1492 1494 1495 1497 1498 1503 1509 1510 1509 1513 1516 1518 1521 1524 1526 1528 1529 1531 1533 1535 1536 1537
1491 1491 1493 1495 1497 1501 1505 1505 1501 1504 1504 1508 1512 1516 1519 1522 1523 1523 1525 1527 1528 1531
1492 1492 1493 1494 1496 1497 1499 1499 1499 1493 1495 1500 1506 1509 1511 1513 1515 1515 1517 1517 1520 1523